Flag for Argentina Weather past 2 weeks in Tucumán, Tucumán, Argentina

Now
59 °F

Clear.


Feels Like: 57 °F
Forecast: 39 / 69 °F
Wind: 10 mph from Southwest

Location: Tucuman Aerodrome

Current Time: Jul 28, 2014 at 11:49:49 AM

Latest Report: Jul 28, 2014 at 11:00 AM


Visibility: 4 mi

Pressure: 30.12 "Hg

Humidity: 48%

Dew point: 39 °F

Location of TucumánLocation

Historic Weather in Tucumán — Graph

°F

Tucumán temperature yesterday

Maximum temperature yesterday: 64 °F (at 5:00 PM)
Minimum temperature yesterday: 39 °F (at 6:00 AM)
Average temperature yesterday: 50 °F

Past Weeks' High & Low Weather Summary

 TemperatureHumidityPressure
High75 °F (Jul 14, 4:00 PM)94% (Jul 14, 12:00 AM)30.48 "Hg (Jul 14, 12:00 AM)
Low36 °F (Jul 25, 3:00 AM)27% (Jul 24, 5:00 PM)29.71 "Hg (Jul 14, 4:00 PM)
Average56 °F67%30.08 "Hg
* Reported Jul 13 10:00 AM — Jul 28 10:00 AM, Tucumán, Weather by CustomWeather, © 2014

Note: Actual official high and low records may vary slightly from our data, if they occured in-between our weather recording intervals... More about our weather records

Advertising

Tucumán weather history for previous 24 hours

 ConditionsComfort  
Time TempWeatherWind HumidityBarometerVisibility
10:00 AM
Jul 28
52 °FClear.10 mph62%30.12 "Hg6 mi
9:00 AM45 °FClear.10 mph71%30.12 "Hg6 mi
8:00 AM43 °FClear.10 mph76%30.12 "Hg6 mi
7:00 AM41 °FClear.8 mph81%30.09 "Hg6 mi
6:00 AM43 °FClear.7 mph76%30.09 "Hg6 mi
5:00 AM43 °FClear.7 mph76%30.09 "Hg6 mi
4:00 AM43 °FClear.5 mph76%30.09 "Hg6 mi
3:00 AM45 °FClear.7 mph76%30.12 "Hg6 mi
2:00 AM45 °FClear.9 mph76%30.15 "Hg6 mi
1:00 AM45 °FClear.7 mph76%30.18 "Hg5 mi
12:00 AM43 °FClear.7 mph81%30.24 "Hg4 mi
10:00 PM
Jul 27
50 °FClear.3 mph58%30.18 "Hg4 mi
9:00 PM52 °FClear.7 mph58%30.18 "Hg4 mi
8:00 PM54 °FClear.7 mph54%30.15 "Hg4 mi
7:00 PM59 °FClear.No wind45%30.12 "Hg6 mi
6:00 PM64 °FClear.7 mph37%30.12 "Hg5 mi
5:00 PM64 °FClear.12 mph37%30.12 "Hg5 mi
4:00 PM63 °FClear.7 mph37%30.15 "Hg4 mi
3:00 PM61 °FClear.5 mph39%30.18 "Hg4 mi
2:00 PM57 °FClear.2 mph44%30.18 "Hg4 mi
1:00 PM55 °FPartly sunny.6 mph47%30.21 "Hg4 mi
12:00 PM54 °FScattered clouds.7 mph51%30.24 "Hg4 mi
11:00 AM48 °FOvercast.5 mph58%30.24 "Hg4 mi
Weather by CustomWeather, © 2014

See weather overviewHow to use our weather pages